CAPE
875 815 849 893 810 808 1064 1186 1183 1339 1454 1531 1379 1147 1174 1331 965 1019 974 840 938 896 722 886 754 749 795 910 1057 862 1134 1340 1381 1314 1179 1273 1166 1105 1292 1142 1228 1393
639 886 784 826 769 759 800 812 1316 1426 1623 1473 1419 1218 1155 1016 892 954 845 819 588 707 667 832 810 699 745 674 1120 1085 1206 1449 1281 916 1348 1241 1320 1212 1165 1392 1164 1246
762 837 685 644 713 660 544 1063 1519 1567 1145 1386 1260 1262 1068 934 984 990 814 720 510 639 686 719 858 776 572 746 693 865 1058 1244 1094 1084 1126 1046 1396 1397 1510 1483 1463 1164
649 655 531 446 513 592 699 1213 1352 1588 1374 1186 1155 1136 945 827 946 758 698 633 782 710 705 615 646 510 244 537 685 820 1137 1194 1083 1175 1192 1319 1316 1263 1316 1505 1319 1234
680 563 515 540 644 639 947 1190 1327 1455 1312 1276 1317 966 794 839 807 520 615 691 673 584 606 583 470 431 310 441 515 735 1166 1308 1204 1241 1229 1109 1353 1278 1364 1339 1214 1418
725 665 809 842 908 1138 1250 1175 1221 1318 1253 1057 906 829 841 795 653 428 476 610 544 617 494 495 364 348 183 447 394 766 835 967 805 983 1022 970 1040 1189 746 918 1028 1403
723 515 632 674 1170 1164 1062 1054 1054 1022 1140 839 505 640 588 563 458 334 236 453 326 347 317 389 223 237 106 614 157 389 374 306 498 422 217 506 465 662 595 618 771 707
450 353 585 713 1011 1058 1028 1217 1078 1145 1057 606 601 403 376 369 417 432 302 274 192 236 155 90 89 85 137 211 285 313 400 318 285 236 194 248 319 272 390 294 973 982
450 395 402 545 769 942 925 931 966 1074 883 960 589 272 305 438 501 406 373 222 245 169 80 102 3 81 170 193 430 223 215 264 392 281 317 354 116 219 166 267 732 879
624 470 534 635 740 805 875 908 994 968 854 884 610 254 266 495 434 367 271 268 178 140 163 36 28 21 81 74 133 109 228 149 92 225 112 148 236 122 79 223 489 921
976 753 640 658 746 763 873 888 955 930 888 754 567 502 258 508 175 297 229 126 306 122 55 15 17 0 10 72 44 319 40 130 85 62 206 117 350 82 133 256 345 777
977 902 778 784 771 815 883 907 908 885 957 562 427 373 356 300 105 159 50 32 34 58 9 0 0 0 0 40 35 28 194 218 53 202 57 96 0 2 24 254 208 610
702 872 900 878 833 848 913 1052 837 923 728 782 492 402 233 155 52 127 24 19 4 22 0 0 0 0 8 8 21 11 42 7 78 15 45 326 19 17 40 77 215 372
623 1179 962 667 756 801 736 842 743 694 579 574 375 286 100 94 77 40 36 0 16 7 2 0 0 0 0 0 0 24 73 29 38 57 59 35 72 149 50 0 386 644
1165 1456 1062 812 1100 800 568 463 578 412 565 511 327 130 125 73 20 4 2 2 4 35 0 0 0 0 0 0 0 0 2 18 82 74 53 84 11 35 20 6 479 680
834 1154 895 493 414 375 378 339 308 465 595 172 34 20 36 5 0 0 0 0 8 1 0 0 0 0 0 0 0 0 0 32 0 0 32 68 104 60 12 66 19 173
696 715 538 414 403 312 235 210 318 161 44 56 51 43 55 14 19 4 31 80 15 0 0 0 0 0 0 0 0 0 0 0 0 0 0 0 2 73 147 17 5 0
423 394 644 433 282 209 148 153 113 30 9 18 61 66 127 131 8 0 0 0 0 0 0 0 0 0 0 0 0 0 0 0 0 2 0 2 0 0 8 16 12 0
208 261 239 253 106 65 126 2 70 165 175 228 274 157 14 0 0 0 0 0 0 0 0 0 0 0 0 0 0 0 0 0 0 11 0 0 2 26 65 99 82 53
9 151 185 165 145 104 35 12 28 20 4 63 94 42 10 0 0 0 0 0 0 0 0 0 0 0 0 0 0 0 0 0 0 234 80 49 23 160 100 110 14 73
150 50 111 116 116 89 47 26 0 1 0 0 0 0 0 0 0 0 0 0 0 0 0 1 1 0 0 0 0 0 0 0 2 237 46 43 17 37 0 4 42 48
39 100 47 110 94 68 26 27 0 0 0 0 0 0 0 0 0 0 0 0 0 0 0 0 1 0 0 0 0 0 0 0 48 60 43 79 238 362 106 211 184 168
27 40 7 23 14 21 12 14 1 0 0 0 0 0 0 0 0 0 0 0 0 0 0 0 0 0 0 0 0 0 0 0 0 26 75 93 170 404 334 0 163 332
24 30 30 24 15 2 1 2 6 0 0 2 1 0 0 0 0 0 1 0 0 0 0 0 0 0 0 0 0 0 0 0 0 0 55 49 85 216 39 0 44 218
1 10 9 9 15 12 7 2 0 0 0 0 0 0 0 0 2 4 2 0 0 0 0 3 5 4 0 0 0 0 0 0 0 0 0 0 0 0 0 0 0 0
6 8 8 1 0 0 0 0 1 0 0 0 0 1 4 4 5 4 3 1 3 7 5 19 15 10 0 0 0 0 0 0 0 0 0 0 0 0 0 0 0 0
Wind_Speed
17 17 17 18 19 23 24 22 17 16 17 20 19 19 18 20 22 21 22 21 20 20 20 19 18 17 17 17 15 15 14 15 14 13 13 13 14 15 14 17 17 16
15 13 16 19 18 22 24 17 13 16 19 21 20 19 20 22 21 20 23 22 23 22 22 22 20 18 16 17 17 17 16 15 13 13 13 13 14 15 13 14 16 14
22 19 17 19 18 19 18 12 14 16 18 18 19 18 20 20 19 21 21 22 22 24 24 22 20 18 16 17 18 17 17 14 13 13 13 12 14 14 14 13 15 13
24 22 20 19 19 21 17 10 16 16 17 18 17 18 19 19 19 21 21 22 25 25 23 21 21 19 17 19 20 18 18 16 12 13 12 13 13 13 13 13 13 13
29 25 23 19 18 21 19 19 20 18 17 16 18 19 20 19 19 20 22 23 25 24 23 23 21 20 19 20 19 18 18 15 12 12 12 12 13 13 13 12 12 12
30 28 24 21 21 21 25 24 21 20 18 17 19 20 20 19 20 20 20 22 23 24 23 24 21 22 19 18 19 18 18 14 13 12 10 14 13 12 13 10 11 13
28 27 24 23 23 23 23 22 22 21 19 18 19 20 20 20 20 21 20 22 22 23 23 22 23 21 19 21 18 20 18 14 14 13 11 14 13 14 13 11 9 12
23 25 26 24 23 24 23 25 25 22 19 19 19 20 18 19 21 20 21 21 22 24 22 nan nan nan 21 20 19 20 16 14 15 13 11 15 14 14 13 13 12 10
22 23 27 28 23 24 26 27 27 23 21 21 21 18 17 19 22 21 22 20 24 22 nan 24 nan nan 21 19 22 19 16 13 13 12 13 18 16 14 14 16 15 13
24 23 27 27 27 27 28 27 27 26 23 22 19 18 19 21 24 22 22 20 23 19 23 nan nan nan nan nan 21 18 15 17 nan 18 20 18 16 15 nan 20 17 18
25 24 26 27 27 28 29 28 28 27 25 24 20 19 21 23 26 22 22 20 22 19 nan nan nan nan nan nan nan 18 nan 18 nan nan 17 17 17 nan 23 21 21 21
25 24 27 27 27 28 29 29 29 28 26 25 20 20 25 27 24 22 nan nan nan nan nan nan nan nan nan nan nan nan 19 21 nan 19 nan nan nan nan nan 24 21 27
26 26 29 28 26 28 31 31 29 29 29 26 22 22 26 27 nan 25 nan nan nan nan nan nan nan nan nan nan nan nan nan nan nan nan nan 21 nan nan nan nan 24 30
29 28 31 30 27 29 30 31 31 31 30 26 25 25 27 nan nan nan nan nan nan nan nan nan nan nan nan nan nan nan nan nan nan nan nan nan nan 22 nan nan 27 26
32 33 32 31 30 30 33 35 34 33 31 26 27 28 28 nan nan nan nan nan nan nan nan nan nan nan nan nan nan nan nan nan nan nan nan nan nan nan nan nan 29 27
35 34 33 35 34 32 32 34 32 31 27 28 nan nan nan nan nan nan nan nan nan nan nan nan nan nan nan nan nan nan nan nan nan nan nan nan 22 nan nan nan nan 28
31 31 33 33 33 32 33 32 30 32 nan nan nan nan nan nan nan nan nan nan nan nan nan nan nan nan nan nan nan nan nan nan nan nan nan nan nan nan 26 nan nan nan
33 34 35 32 32 33 32 31 29 nan nan nan nan nan 30 33 nan nan nan nan nan nan nan nan nan nan nan nan nan nan nan nan nan nan nan nan nan nan nan nan nan nan
34 37 37 37 34 nan 31 nan nan 23 29 29 29 29 nan nan nan nan nan nan nan nan nan nan nan nan nan nan nan nan nan nan nan nan nan nan nan nan nan nan nan nan
nan 36 37 36 35 35 nan nan nan nan nan nan nan nan nan nan nan nan nan nan nan nan nan nan nan nan nan nan nan nan nan nan nan 24 nan nan nan 25 nan 23 nan nan
34 nan 34 35 36 nan nan nan nan nan nan nan nan nan nan nan nan nan nan nan nan nan nan nan nan nan nan nan nan nan nan nan nan 26 nan nan nan nan nan nan nan nan
nan 37 nan 35 nan nan nan nan nan nan nan nan nan nan nan nan nan nan nan nan nan nan nan nan nan nan nan nan nan nan nan nan nan nan nan nan 28 30 28 27 27 26
nan nan nan nan nan nan nan nan nan nan nan nan nan nan nan nan nan nan nan nan nan nan nan nan nan nan nan nan nan nan nan nan nan nan nan nan 26 27 29 nan 32 31
nan nan nan nan nan nan nan nan nan nan nan nan nan nan nan nan nan nan nan nan nan nan nan nan nan nan nan nan nan nan nan nan nan nan nan nan nan 27 nan nan nan 43
nan nan nan nan nan nan nan nan nan nan nan nan nan nan nan nan nan nan nan nan nan nan nan nan nan nan nan nan nan nan nan nan nan nan nan nan nan nan nan nan nan nan
nan nan nan nan nan nan nan nan nan nan nan nan nan nan nan nan nan nan nan nan nan nan nan nan nan nan nan nan nan nan nan nan nan nan nan nan nan nan nan nan nan nan
Wind_Direction
234 227 237 240 249 248 229 226 238 251 256 263 266 265 259 256 257 255 256 256 254 254 256 257 257 258 262 262 259 259 263 273 266 272 276 278 282 283 282 285 278 272
275 261 247 247 253 242 228 218 240 259 259 257 259 261 259 260 259 258 257 255 252 253 253 253 255 257 257 262 265 265 260 260 268 272 272 277 278 280 276 272 280 272
300 281 274 269 267 245 220 213 264 269 267 258 256 257 262 262 261 257 256 253 252 250 247 249 252 255 256 258 263 262 263 257 254 259 271 279 277 278 277 268 266 269
301 289 278 274 265 243 234 262 279 272 269 263 255 258 258 258 256 255 252 250 248 247 248 247 250 248 253 255 258 257 253 250 251 254 259 267 270 273 272 268 267 268
308 289 273 268 264 254 255 273 275 271 273 263 258 258 257 255 255 253 248 245 246 247 247 248 248 249 243 250 255 255 253 250 250 257 264 262 268 272 271 270 270 270
303 293 278 271 265 258 258 263 267 270 269 261 258 257 256 255 255 251 249 246 246 248 245 247 248 247 244 250 249 248 254 255 251 253 258 265 253 264 267 264 272 267
302 295 279 265 252 255 258 259 262 264 264 261 257 256 258 259 254 251 244 245 246 247 249 247 248 247 244 246 245 244 241 238 252 254 261 262 261 259 270 272 275 279
295 293 283 264 251 261 262 261 258 257 262 260 251 252 256 254 254 248 244 243 248 248 248 nan nan nan 246 243 244 241 240 240 248 254 248 263 259 258 260 256 257 257
286 290 288 289 277 266 268 264 257 252 258 256 246 246 249 250 250 247 246 242 247 247 nan 249 nan nan 242 238 240 240 240 239 250 251 254 256 253 253 253 259 254 251
285 289 291 291 286 274 272 267 256 251 255 253 240 240 251 251 251 246 245 241 247 244 250 nan nan nan nan nan 243 240 238 242 nan 240 247 253 252 251 nan 256 254 251
282 287 285 286 283 275 273 269 257 250 253 249 235 237 250 249 252 244 245 239 241 239 nan nan nan nan nan nan nan 241 nan 245 nan nan 246 252 249 nan 238 249 252 253
276 277 278 277 279 275 270 265 258 251 248 245 236 238 244 246 247 245 nan nan nan nan nan nan nan nan nan nan nan nan 243 246 nan 247 nan nan nan nan nan 244 253 256
267 271 271 270 273 270 267 267 259 248 242 237 235 236 246 246 nan 243 nan nan nan nan nan nan nan nan nan nan nan nan nan nan nan nan nan 248 nan nan nan nan 251 262
265 263 265 266 268 272 270 267 262 248 240 233 234 237 242 nan nan nan nan nan nan nan nan nan nan nan nan nan nan nan nan nan nan nan nan nan nan 248 nan nan 260 264
254 257 261 261 262 262 262 257 250 238 231 232 234 234 239 nan nan nan nan nan nan nan nan nan nan nan nan nan nan nan nan nan nan nan nan nan nan nan nan nan 260 262
247 252 255 259 262 261 263 258 238 224 224 229 nan nan nan nan nan nan nan nan nan nan nan nan nan nan nan nan nan nan nan nan nan nan nan nan 269 nan nan nan nan 262
246 249 255 257 260 263 261 249 229 210 nan nan nan nan nan nan nan nan nan nan nan nan nan nan nan nan nan nan nan nan nan nan nan nan nan nan nan nan 267 nan nan nan
236 237 249 255 263 265 254 238 224 nan nan nan nan nan 241 241 nan nan nan nan nan nan nan nan nan nan nan nan nan nan nan nan nan nan nan nan nan nan nan nan nan nan
238 245 247 246 249 nan 236 nan nan 223 230 237 240 243 nan nan nan nan nan nan nan nan nan nan nan nan nan nan nan nan nan nan nan nan nan nan nan nan nan nan nan nan
nan 242 242 241 242 239 nan nan nan nan nan nan nan nan nan nan nan nan nan nan nan nan nan nan nan nan nan nan nan nan nan nan nan 248 nan nan nan 252 nan 254 nan nan
234 nan 234 234 233 nan nan nan nan nan nan nan nan nan nan nan nan nan nan nan nan nan nan nan nan nan nan nan nan nan nan nan nan 247 nan nan nan nan nan nan nan nan
nan 234 nan 232 nan nan nan nan nan nan nan nan nan nan nan nan nan nan nan nan nan nan nan nan nan nan nan nan nan nan nan nan nan nan nan nan 241 243 246 247 250 254
nan nan nan nan nan nan nan nan nan nan nan nan nan nan nan nan nan nan nan nan nan nan nan nan nan nan nan nan nan nan nan nan nan nan nan nan 251 255 252 nan 248 250
nan nan nan nan nan nan nan nan nan nan nan nan nan nan nan nan nan nan nan nan nan nan nan nan nan nan nan nan nan nan nan nan nan nan nan nan nan 257 nan nan nan 248
nan nan nan nan nan nan nan nan nan nan nan nan nan nan nan nan nan nan nan nan nan nan nan nan nan nan nan nan nan nan nan nan nan nan nan nan nan nan nan nan nan nan
nan nan nan nan nan nan nan nan nan nan nan nan nan nan nan nan nan nan nan nan nan nan nan nan nan nan nan nan nan nan nan nan nan nan nan nan nan nan nan nan nan nan